Location: Salillas
(41.9950°N, 0.2228°W)
Time: 07:51:06
(UTC+00:00)

Cosmos 1626 - Pass Details

Date: 29 March 2020
Orbit: 492 x 494 km, 82.5° (Epoch: 03 June)

Event Time Altitude Azimuth Distance (km) Brightness Sun altitude
Rises 18:51:27 0° 6° (N) 2,584 5.8 -6.0°
Reaches altitude 10° 18:53:59 10° 24° (NNE) 1,697 4.7 -6.4°
Maximum altitude 18:56:49 21° 74° (ENE) 1,175 3.5 -6.9°
Drops below altitude 10° 18:59:38 10° 124° (ESE) 1,688 4.2 -7.4°
Enters shadow 19:00:26 - 131° (SE) 1,945 4.6 -7.6°
